Time,TemperatureF,DewpointF,PressureIn,WindDirection,WindDirectionDegrees,WindSpeedMPH,WindSpeedGustMPH,Humidity,HourlyPrecipIn,Conditions,Clouds,dailyrainin,SoftwareType,DateUTC
2013-03-02 00:01:00,25.0,24.0,-100.00,North,-999,-999.0,-999.0,95,-99.99,,,-99.99,,2013-03-02 07:01:00,
2013-03-02 00:11:00,25.0,24.0,-100.00,North,-999,-999.0,-999.0,95,-99.99,,,-99.99,,2013-03-02 07:11:00,
2013-03-02 00:21:00,25.0,24.0,-100.00,North,-999,-999.0,-999.0,95,-99.99,,,-99.99,,2013-03-02 07:21:00,
2013-03-02 00:32:00,25.0,24.0,-100.00,North,-999,-999.0,-999.0,95,-99.99,,,-99.99,,2013-03-02 07:32:00,
2013-03-02 00:42:00,25.0,24.0,-100.00,North,-999,-999.0,-999.0,96,-99.99,,,-99.99,,2013-03-02 07:42:00,
2013-03-02 00:52:00,25.0,24.0,-100.00,North,-999,-999.0,-999.0,97,-99.99,,,-99.99,,2013-03-02 07:52:00,
2013-03-02 01:01:00,25.0,24.0,-100.00,North,-999,-999.0,-999.0,97,-99.99,,,-99.99,,2013-03-02 08:01:00,
2013-03-02 01:11:00,24.0,23.0,-100.00,North,-999,-999.0,-999.0,96,-99.99,,,-99.99,,2013-03-02 08:11:00,
2013-03-02 01:21:00,24.0,23.0,-100.00,North,-999,-999.0,-999.0,96,-99.99,,,-99.99,,2013-03-02 08:21:00,
2013-03-02 01:31:00,24.0,23.0,-100.00,North,-999,-999.0,-999.0,96,-99.99,,,-99.99,,2013-03-02 08:31:00,
2013-03-02 01:42:00,24.0,23.0,-100.00,North,-999,-999.0,-999.0,96,-99.99,,,-99.99,,2013-03-02 08:42:00,
2013-03-02 01:52:00,24.0,23.0,-100.00,North,-999,-999.0,-999.0,95,-99.99,,,-99.99,,2013-03-02 08:52:00,
2013-03-02 02:01:00,24.0,23.0,-100.00,North,-999,-999.0,-999.0,95,-99.99,,,-99.99,,2013-03-02 09:01:00,
2013-03-02 02:11:00,24.0,23.0,-100.00,North,-999,-999.0,-999.0,95,-99.99,,,-99.99,,2013-03-02 09:11:00,
2013-03-02 02:21:00,24.0,23.0,-100.00,North,-999,-999.0,-999.0,95,-99.99,,,-99.99,,2013-03-02 09:21:00,
2013-03-02 02:31:00,24.0,23.0,-100.00,North,-999,-999.0,-999.0,95,-99.99,,,-99.99,,2013-03-02 09:31:00,
2013-03-02 02:42:00,24.0,22.0,-100.00,North,-999,-999.0,-999.0,91,-99.99,,,-99.99,,2013-03-02 09:42:00,
2013-03-02 02:52:00,24.0,22.0,-100.00,North,-999,-999.0,-999.0,90,-99.99,,,-99.99,,2013-03-02 09:52:00,
2013-03-02 03:01:00,24.0,22.0,-100.00,North,-999,-999.0,-999.0,90,-99.99,,,-99.99,,2013-03-02 10:01:00,
2013-03-02 03:14:00,24.0,22.0,-100.00,North,-999,-999.0,-999.0,92,-99.99,,,-99.99,,2013-03-02 10:14:00,
2013-03-02 03:21:00,24.0,22.0,-100.00,North,-999,-999.0,-999.0,92,-99.99,,,-99.99,,2013-03-02 10:21:00,
2013-03-02 03:31:00,24.0,22.0,-100.00,North,-999,-999.0,-999.0,92,-99.99,,,-99.99,,2013-03-02 10:31:00,
2013-03-02 03:42:00,24.0,22.0,-100.00,North,-999,-999.0,-999.0,94,-99.99,,,-99.99,,2013-03-02 10:42:00,
2013-03-02 03:52:00,24.0,23.0,-100.00,North,-999,-999.0,-999.0,94,-99.99,,,-99.99,,2013-03-02 10:52:00,
2013-03-02 04:01:00,24.0,23.0,-100.00,North,-999,-999.0,-999.0,94,-99.99,,,-99.99,,2013-03-02 11:01:00,
2013-03-02 04:11:00,24.0,23.0,-100.00,North,-999,-999.0,-999.0,94,-99.99,,,-99.99,,2013-03-02 11:11:00,
2013-03-02 04:21:00,24.0,23.0,-100.00,North,-999,-999.0,-999.0,94,-99.99,,,-99.99,,2013-03-02 11:21:00,
2013-03-02 04:31:00,24.0,23.0,-100.00,North,-999,-999.0,-999.0,94,-99.99,,,-99.99,,2013-03-02 11:31:00,
2013-03-02 04:41:00,24.0,23.0,-100.00,North,-999,-999.0,-999.0,94,-99.99,,,-99.99,,2013-03-02 11:41:00,
2013-03-02 04:52:00,24.0,23.0,-100.00,North,-999,-999.0,-999.0,95,-99.99,,,-99.99,,2013-03-02 11:52:00,
2013-03-02 05:02:00,24.0,23.0,-100.00,North,-999,-999.0,-999.0,95,-99.99,,,-99.99,,2013-03-02 12:02:00,
2013-03-02 05:11:00,24.0,23.0,-100.00,North,-999,-999.0,-999.0,95,-99.99,,,-99.99,,2013-03-02 12:11:00,
2013-03-02 05:21:00,24.0,23.0,-100.00,North,-999,-999.0,-999.0,95,-99.99,,,-99.99,,2013-03-02 12:21:00,
2013-03-02 05:32:00,24.0,23.0,-100.00,North,-999,-999.0,-999.0,95,-99.99,,,-99.99,,2013-03-02 12:32:00,
2013-03-02 05:43:00,23.0,22.0,-100.00,North,-999,-999.0,-999.0,96,-99.99,,,-99.99,,2013-03-02 12:43:00,
2013-03-02 05:53:00,23.0,22.0,-100.00,North,-999,-999.0,-999.0,96,-99.99,,,-99.99,,2013-03-02 12:53:00,
2013-03-02 06:01:00,24.0,23.0,-100.00,North,-999,-999.0,-999.0,94,-99.99,,,-99.99,,2013-03-02 13:01:00,
2013-03-02 06:11:00,24.0,22.0,-100.00,North,-999,-999.0,-999.0,92,-99.99,,,-99.99,,2013-03-02 13:11:00,
2013-03-02 06:21:00,24.0,22.0,-100.00,North,-999,-999.0,-999.0,92,-99.99,,,-99.99,,2013-03-02 13:21:00,
2013-03-02 06:31:00,24.0,22.0,-100.00,North,-999,-999.0,-999.0,92,-99.99,,,-99.99,,2013-03-02 13:31:00,
2013-03-02 06:41:00,24.0,18.0,-100.00,North,-999,-999.0,-999.0,78,-99.99,,,-99.99,,2013-03-02 13:41:00,
2013-03-02 06:52:00,24.0,18.0,-100.00,North,-999,-999.0,-999.0,78,-99.99,,,-99.99,,2013-03-02 13:52:00,
2013-03-02 07:01:00,25.0,16.0,-100.00,North,-999,-999.0,-999.0,70,-99.99,,,-99.99,,2013-03-02 14:01:00,
2013-03-02 07:11:00,25.0,16.0,-100.00,North,-999,-999.0,-999.0,68,-99.99,,,-99.99,,2013-03-02 14:11:00,
2013-03-02 07:21:00,25.0,16.0,-100.00,North,-999,-999.0,-999.0,68,-99.99,,,-99.99,,2013-03-02 14:21:00,
2013-03-02 07:31:00,25.0,16.0,-100.00,North,-999,-999.0,-999.0,68,-99.99,,,-99.99,,2013-03-02 14:31:00,
2013-03-02 07:42:00,25.0,13.0,-100.00,North,-999,-999.0,-999.0,60,-99.99,,,-99.99,,2013-03-02 14:42:00,
2013-03-02 07:52:00,25.0,13.0,-100.00,North,-999,-999.0,-999.0,60,-99.99,,,-99.99,,2013-03-02 14:52:00,
2013-03-02 08:01:00,26.0,13.0,-100.00,North,-999,-999.0,-999.0,56,-99.99,,,-99.99,,2013-03-02 15:01:00,
2013-03-02 08:11:00,26.0,13.0,-100.00,North,-999,-999.0,-999.0,58,-99.99,,,-99.99,,2013-03-02 15:11:00,
2013-03-02 08:21:00,26.0,13.0,-100.00,North,-999,-999.0,-999.0,58,-99.99,,,-99.99,,2013-03-02 15:21:00,
2013-03-02 08:31:00,26.0,13.0,-100.00,North,-999,-999.0,-999.0,58,-99.99,,,-99.99,,2013-03-02 15:31:00,
2013-03-02 08:41:00,28.0,14.0,-100.00,North,-999,-999.0,-999.0,54,-99.99,,,-99.99,,2013-03-02 15:41:00,
2013-03-02 08:52:00,28.0,14.0,-100.00,North,-999,-999.0,-999.0,54,-99.99,,,-99.99,,2013-03-02 15:52:00,
2013-03-02 09:01:00,29.0,15.0,-100.00,North,-999,-999.0,-999.0,55,-99.99,,,-99.99,,2013-03-02 16:01:00,
2013-03-02 09:11:00,30.0,16.0,-100.00,North,-999,-999.0,-999.0,53,-99.99,,,-99.99,,2013-03-02 16:11:00,
2013-03-02 09:21:00,30.0,16.0,-100.00,North,-999,-999.0,-999.0,53,-99.99,,,-99.99,,2013-03-02 16:21:00,
2013-03-02 09:31:00,30.0,16.0,-100.00,North,-999,-999.0,-999.0,53,-99.99,,,-99.99,,2013-03-02 16:31:00,
2013-03-02 09:41:00,33.0,17.0,-100.00,North,-999,-999.0,-999.0,50,-99.99,,,-99.99,,2013-03-02 16:41:00,
2013-03-02 09:52:00,33.0,17.0,-100.00,North,-999,-999.0,-999.0,50,-99.99,,,-99.99,,2013-03-02 16:52:00,
2013-03-02 10:01:00,35.0,19.0,-100.00,North,-999,-999.0,-999.0,52,-99.99,,,-99.99,,2013-03-02 17:01:00,
2013-03-02 10:11:00,37.0,20.0,-100.00,North,-999,-999.0,-999.0,50,-99.99,,,-99.99,,2013-03-02 17:11:00,
2013-03-02 10:21:00,37.0,20.0,-100.00,North,-999,-999.0,-999.0,50,-99.99,,,-99.99,,2013-03-02 17:21:00,
2013-03-02 10:31:00,37.0,20.0,-100.00,North,-999,-999.0,-999.0,50,-99.99,,,-99.99,,2013-03-02 17:31:00,
2013-03-02 10:41:00,43.0,23.0,-100.00,North,-999,-999.0,-999.0,44,-99.99,,,-99.99,,2013-03-02 17:41:00,
2013-03-02 10:52:00,43.0,23.0,-100.00,North,-999,-999.0,-999.0,44,-99.99,,,-99.99,,2013-03-02 17:52:00,
2013-03-02 11:01:00,47.0,24.0,-100.00,North,-999,-999.0,-999.0,40,-99.99,,,-99.99,,2013-03-02 18:01:00,
2013-03-02 11:11:00,49.0,26.0,-100.00,North,-999,-999.0,-999.0,39,-99.99,,,-99.99,,2013-03-02 18:11:00,
2013-03-02 11:22:00,49.0,26.0,-100.00,North,-999,-999.0,-999.0,39,-99.99,,,-99.99,,2013-03-02 18:22:00,
2013-03-02 11:41:00,52.0,29.0,-100.00,North,-999,-999.0,-999.0,41,-99.99,,,-99.99,,2013-03-02 18:41:00,
2013-03-02 11:52:00,54.0,30.0,-100.00,North,-999,-999.0,-999.0,39,-99.99,,,-99.99,,2013-03-02 18:52:00,
2013-03-02 12:01:00,54.0,30.0,-100.00,North,-999,-999.0,-999.0,39,-99.99,,,-99.99,,2013-03-02 19:01:00,
2013-03-02 12:11:00,55.0,29.0,-100.00,North,-999,-999.0,-999.0,36,-99.99,,,-99.99,,2013-03-02 19:11:00,
2013-03-02 12:21:00,55.0,29.0,-100.00,North,-999,-999.0,-999.0,36,-99.99,,,-99.99,,2013-03-02 19:21:00,
2013-03-02 12:42:00,57.0,31.0,-100.00,North,-999,-999.0,-999.0,36,-99.99,,,-99.99,,2013-03-02 19:42:00,
2013-03-02 12:52:00,57.0,31.0,-100.00,North,-999,-999.0,-999.0,36,-99.99,,,-99.99,,2013-03-02 19:52:00,
2013-03-02 13:01:00,53.0,30.0,-100.00,North,-999,-999.0,-999.0,41,-99.99,,,-99.99,,2013-03-02 20:01:00,
2013-03-02 13:11:00,50.0,29.0,-100.00,North,-999,-999.0,-999.0,44,-99.99,,,-99.99,,2013-03-02 20:11:00,
2013-03-02 13:21:00,50.0,29.0,-100.00,North,-999,-999.0,-999.0,44,-99.99,,,-99.99,,2013-03-02 20:21:00,
2013-03-02 13:31:00,50.0,29.0,-100.00,North,-999,-999.0,-999.0,44,-99.99,,,-99.99,,2013-03-02 20:31:00,
2013-03-02 13:41:00,55.0,31.0,-100.00,North,-999,-999.0,-999.0,39,-99.99,,,-99.99,,2013-03-02 20:41:00,
2013-03-02 13:52:00,55.0,31.0,-100.00,North,-999,-999.0,-999.0,39,-99.99,,,-99.99,,2013-03-02 20:52:00,
2013-03-02 14:02:00,57.0,31.0,-100.00,North,-999,-999.0,-999.0,36,-99.99,,,-99.99,,2013-03-02 21:02:00,
2013-03-02 14:11:00,55.0,31.0,-100.00,North,-999,-999.0,-999.0,40,-99.99,,,-99.99,,2013-03-02 21:11:00,
2013-03-02 14:21:00,55.0,31.0,-100.00,North,-999,-999.0,-999.0,40,-99.99,,,-99.99,,2013-03-02 21:21:00,
2013-03-02 14:41:00,47.0,30.0,-100.00,North,-999,-999.0,-999.0,51,-99.99,,,-99.99,,2013-03-02 21:41:00,
2013-03-02 14:52:00,51.0,31.0,-100.00,North,-999,-999.0,-999.0,45,-99.99,,,-99.99,,2013-03-02 21:52:00,
2013-03-02 15:01:00,51.0,31.0,-100.00,North,-999,-999.0,-999.0,45,-99.99,,,-99.99,,2013-03-02 22:01:00,
2013-03-02 15:11:00,53.0,31.0,-100.00,North,-999,-999.0,-999.0,43,-99.99,,,-99.99,,2013-03-02 22:11:00,
2013-03-02 15:21:00,53.0,31.0,-100.00,North,-999,-999.0,-999.0,43,-99.99,,,-99.99,,2013-03-02 22:21:00,
2013-03-02 15:42:00,54.0,31.0,-100.00,North,-999,-999.0,-999.0,41,-99.99,,,-99.99,,2013-03-02 22:42:00,
2013-03-02 15:52:00,54.0,31.0,-100.00,North,-999,-999.0,-999.0,41,-99.99,,,-99.99,,2013-03-02 22:52:00,
2013-03-02 16:01:00,51.0,31.0,-100.00,North,-999,-999.0,-999.0,45,-99.99,,,-99.99,,2013-03-02 23:01:00,
2013-03-02 16:11:00,52.0,32.0,-100.00,North,-999,-999.0,-999.0,46,-99.99,,,-99.99,,2013-03-02 23:11:00,
2013-03-02 16:21:00,52.0,32.0,-100.00,North,-999,-999.0,-999.0,46,-99.99,,,-99.99,,2013-03-02 23:21:00,
2013-03-02 16:31:00,52.0,32.0,-100.00,North,-999,-999.0,-999.0,46,-99.99,,,-99.99,,2013-03-02 23:31:00,
2013-03-02 16:42:00,52.0,31.0,-100.00,North,-999,-999.0,-999.0,44,-99.99,,,-99.99,,2013-03-02 23:42:00,
2013-03-02 16:52:00,52.0,31.0,-100.00,North,-999,-999.0,-999.0,44,-99.99,,,-99.99,,2013-03-02 23:52:00,
2013-03-02 17:02:00,46.0,30.0,-100.00,North,-999,-999.0,-999.0,53,-99.99,,,-99.99,,2013-03-03 00:02:00,
2013-03-02 17:11:00,42.0,30.0,-100.00,North,-999,-999.0,-999.0,63,-99.99,,,-99.99,,2013-03-03 00:11:00,
2013-03-02 17:22:00,42.0,30.0,-100.00,North,-999,-999.0,-999.0,63,-99.99,,,-99.99,,2013-03-03 00:22:00,
2013-03-02 17:31:00,42.0,30.0,-100.00,North,-999,-999.0,-999.0,63,-99.99,,,-99.99,,2013-03-03 00:31:00,
2013-03-02 17:42:00,40.0,30.0,-100.00,North,-999,-999.0,-999.0,67,-99.99,,,-99.99,,2013-03-03 00:42:00,
2013-03-02 17:52:00,40.0,30.0,-100.00,North,-999,-999.0,-999.0,67,-99.99,,,-99.99,,2013-03-03 00:52:00,
2013-03-02 18:01:00,40.0,27.0,-100.00,North,-999,-999.0,-999.0,58,-99.99,,,-99.99,,2013-03-03 01:01:00,
2013-03-02 18:11:00,41.0,24.0,-100.00,North,-999,-999.0,-999.0,48,-99.99,,,-99.99,,2013-03-03 01:11:00,
2013-03-02 18:21:00,41.0,24.0,-100.00,North,-999,-999.0,-999.0,48,-99.99,,,-99.99,,2013-03-03 01:21:00,
2013-03-02 18:31:00,41.0,24.0,-100.00,North,-999,-999.0,-999.0,48,-99.99,,,-99.99,,2013-03-03 01:31:00,
2013-03-02 18:41:00,40.0,20.0,-100.00,North,-999,-999.0,-999.0,45,-99.99,,,-99.99,,2013-03-03 01:41:00,
2013-03-02 18:52:00,40.0,20.0,-100.00,North,-999,-999.0,-999.0,45,-99.99,,,-99.99,,2013-03-03 01:52:00,
2013-03-02 19:01:00,38.0,21.0,-100.00,North,-999,-999.0,-999.0,49,-99.99,,,-99.99,,2013-03-03 02:01:00,
2013-03-02 19:11:00,37.0,21.0,-100.00,North,-999,-999.0,-999.0,51,-99.99,,,-99.99,,2013-03-03 02:11:00,
2013-03-02 19:21:00,37.0,21.0,-100.00,North,-999,-999.0,-999.0,51,-99.99,,,-99.99,,2013-03-03 02:21:00,
2013-03-02 19:31:00,37.0,21.0,-100.00,North,-999,-999.0,-999.0,51,-99.99,,,-99.99,,2013-03-03 02:31:00,
2013-03-02 19:41:00,36.0,20.0,-100.00,North,-999,-999.0,-999.0,52,-99.99,,,-99.99,,2013-03-03 02:41:00,
2013-03-02 19:52:00,36.0,20.0,-100.00,North,-999,-999.0,-999.0,52,-99.99,,,-99.99,,2013-03-03 02:52:00,
2013-03-02 20:01:00,36.0,20.0,-100.00,North,-999,-999.0,-999.0,51,-99.99,,,-99.99,,2013-03-03 03:01:00,
2013-03-02 20:11:00,36.0,18.0,-100.00,North,-999,-999.0,-999.0,48,-99.99,,,-99.99,,2013-03-03 03:11:00,
2013-03-02 20:21:00,36.0,18.0,-100.00,North,-999,-999.0,-999.0,48,-99.99,,,-99.99,,2013-03-03 03:21:00,
2013-03-02 20:31:00,36.0,18.0,-100.00,North,-999,-999.0,-999.0,48,-99.99,,,-99.99,,2013-03-03 03:31:00,
2013-03-02 20:41:00,36.0,17.0,-100.00,North,-999,-999.0,-999.0,46,-99.99,,,-99.99,,2013-03-03 03:41:00,
2013-03-02 20:52:00,36.0,17.0,-100.00,North,-999,-999.0,-999.0,46,-99.99,,,-99.99,,2013-03-03 03:52:00,
2013-03-02 21:01:00,36.0,18.0,-100.00,North,-999,-999.0,-999.0,47,-99.99,,,-99.99,,2013-03-03 04:01:00,
2013-03-02 21:11:00,36.0,19.0,-100.00,North,-999,-999.0,-999.0,49,-99.99,,,-99.99,,2013-03-03 04:11:00,
2013-03-02 21:21:00,36.0,19.0,-100.00,North,-999,-999.0,-999.0,49,-99.99,,,-99.99,,2013-03-03 04:21:00,
2013-03-02 21:31:00,36.0,19.0,-100.00,North,-999,-999.0,-999.0,49,-99.99,,,-99.99,,2013-03-03 04:31:00,
2013-03-02 21:41:00,35.0,19.0,-100.00,North,-999,-999.0,-999.0,51,-99.99,,,-99.99,,2013-03-03 04:41:00,
2013-03-02 21:52:00,35.0,19.0,-100.00,North,-999,-999.0,-999.0,51,-99.99,,,-99.99,,2013-03-03 04:52:00,
2013-03-02 22:01:00,35.0,19.0,-100.00,North,-999,-999.0,-999.0,51,-99.99,,,-99.99,,2013-03-03 05:01:00,
2013-03-02 22:11:00,34.0,19.0,-100.00,North,-999,-999.0,-999.0,52,-99.99,,,-99.99,,2013-03-03 05:11:00,
2013-03-02 22:22:00,34.0,19.0,-100.00,North,-999,-999.0,-999.0,52,-99.99,,,-99.99,,2013-03-03 05:22:00,
2013-03-02 22:32:00,34.0,19.0,-100.00,North,-999,-999.0,-999.0,52,-99.99,,,-99.99,,2013-03-03 05:32:00,
2013-03-02 22:42:00,34.0,20.0,-100.00,North,-999,-999.0,-999.0,55,-99.99,,,-99.99,,2013-03-03 05:42:00,
2013-03-02 22:52:00,34.0,20.0,-100.00,North,-999,-999.0,-999.0,55,-99.99,,,-99.99,,2013-03-03 05:52:00,
2013-03-02 23:01:00,34.0,21.0,-100.00,North,-999,-999.0,-999.0,57,-99.99,,,-99.99,,2013-03-03 06:01:00,
2013-03-02 23:11:00,35.0,22.0,-100.00,North,-999,-999.0,-999.0,58,-99.99,,,-99.99,,2013-03-03 06:11:00,
2013-03-02 23:21:00,35.0,22.0,-100.00,North,-999,-999.0,-999.0,58,-99.99,,,-99.99,,2013-03-03 06:21:00,
2013-03-02 23:31:00,35.0,22.0,-100.00,North,-999,-999.0,-999.0,58,-99.99,,,-99.99,,2013-03-03 06:31:00,
2013-03-02 23:42:00,35.0,23.0,-100.00,North,-999,-999.0,-999.0,60,-99.99,,,-99.99,,2013-03-03 06:42:00,
2013-03-02 23:52:00,35.0,24.0,-100.00,North,-999,-999.0,-999.0,62,-99.99,,,-99.99,,2013-03-03 06:52:00,